INTELSAT 37E (IS-37E) (42950 NORAD) Tracking and Keplerian Element Data

This shows tracking and keplerian element data for the satellite.

Feedback or suggestion? Click here.




ElementValue
Catalog42950
NameINTELSAT 37E (IS-37E)
Epoch Orbit2317
Epoch Day12.8415298
Epoch Year2024
RAAN48.0837
Inclination0.0175
Eccentricity0.0002532
Argument of Perigee239.7281
Mean Anonmoly108.9606
Mean Motion1.00270782
Decay Rate-1.32E-06
L11 42950U 17059A 24012.84152980 -.00000132 00000+0 00000+0 0 9993
L22 42950 0.0175 48.0837 0002532 239.7281 108.9606 1.00270782 23179



Live tracking and technical data element details for INTELSAT 37E (IS-37E) (NORAD 42950). INTELSAT 37E (IS-37E) can be tracked NOW for your location showing map with azimuth and elevation plus other details from your city location.







IsCatalogInMostPopularTable: catalog: 42950, numindb: 1353
Update: records affected: 1



GetName: 42950 INTELSAT 37E (IS-37E)

Hit Count: updated at: Fri, 01 Mar 2024 10:49:28 GMT